Weather History for Greenville, ME

Change the Weather History Date:

Thursday, February 21, 2013

  Actual Average (KMLT) Record (KMLT)
Temperature  
Mean Temperature 18 °F 20 °F  
Max Temperature 27 °F 31 °F 62 °F (1994)
Min Temperature 10 °F 10 °F -24 °F (1993)
Degree Days  
Heating Degree Days 46 45  
Month to date heating degree days 1005  
Since 1 July heating degree days 5751  
Cooling Degree Days 0 0  
Month to date cooling degree days 0  
Year to date cooling degree days 0  
Moisture  
Dew Point 14 °F    
Average Humidity 84    
Maximum Humidity 96    
Minimum Humidity 77    
Precipitation  
Precipitation 0.09 in 0.08 in 1.35 in (1912)
Month to date precipitation 1.49  
Year to date precipitation 4.42  
Sea Level Pressure  
Sea Level Pressure 29.80 in    
Wind  
Wind Speed 11 mph (NNW)    
Max Wind Speed 22 mph    
Max Gust Speed 36 mph    
T = Trace of Precipitation, MM = Missing Value Source: NWS Daily Summary

Daily Weather History Graph

Daily Weather History Graph

Search for Another Location

Airport:

Trip Planner

Search our weather history database for the weather conditions in past years. The results will help you decide how hot, cold, wet, or windy it might be!

Date:

Astronomy

Feb. 21, 2013 Rise Set
Actual Time 6:30 AM EST 5:14 PM EST
Civil Twilight 6:00 AM EST 5:44 PM EST
Nautical Twilight 5:25 AM EST 6:19 PM EST
Astronomical Twilight 4:51 AM EST 6:53 PM EST
Moon 1:18 PM EST 3:40 AM EST
Length of Visible Light 11h 44m
Length of Day
10h 44m
Waxing Gibbous, 83% of the Moon is Illuminated
Feb 21
Waxing Gibbous
Feb 25
Full
Mar 4
Last Quarter
Mar 11
New
Mar 19
First Quarter

Hourly Weather History & Observations

Time (EST) Temp. Windchill Dew Point Humidity Pressure Visibility Wind Dir Wind Speed Gust Speed Precip Events Conditions
12:56 AM 19.0 °F 8.2 °F 15.1 °F 85% 29.55 in - NW 9.2 mph - N/A   Unknown
1:56 AM 18.0 °F 9.8 °F 14.0 °F 84% 29.56 in - NW 5.8 mph - N/A   Unknown
2:56 AM 16.0 °F 6.3 °F 10.9 °F 81% 29.57 in - NW 6.9 mph - N/A   Unknown
3:56 AM 14.0 °F 0.5 °F 10.0 °F 84% 29.58 in - NW 11.5 mph 23.0 mph N/A   Unknown
4:56 AM 14.0 °F 0.5 °F 9.0 °F 80% 29.61 in - NW 11.5 mph 20.7 mph N/A   Unknown
5:56 AM 12.0 °F -0.4 °F 7.0 °F 80% 29.63 in - NW 9.2 mph 26.5 mph N/A   Unknown
6:56 AM 10.0 °F -1.9 °F 5.0 °F 80% 29.66 in - NW 8.1 mph - N/A   Unknown
7:56 AM 10.9 °F -0.8 °F 5.0 °F 77% 29.69 in - NNW 8.1 mph - N/A   Unknown
8:56 AM 10.9 °F 0.2 °F 6.1 °F 81% 29.71 in - Variable 6.9 mph - N/A   Unknown
9:56 AM 12.0 °F -3.4 °F 6.1 °F 77% 29.73 in - NW 13.8 mph 24.2 mph N/A   Unknown
10:56 AM 12.9 °F 2.6 °F 8.1 °F 81% 29.73 in - Variable 6.9 mph 21.9 mph N/A   Unknown
11:56 AM 15.1 °F 2.5 °F 10.9 °F 84% 29.73 in - NW 10.4 mph 18.4 mph N/A   Unknown
12:56 PM 17.1 °F 4.3 °F 12.9 °F 84% 29.75 in - NNW 11.5 mph 25.3 mph 0.01 in   Unknown
1:56 PM 18.0 °F 0.9 °F 14.0 °F 84% 29.76 in - NNW 21.9 mph 33.4 mph N/A   Unknown
2:56 PM 19.0 °F 3.2 °F 15.1 °F 85% 29.80 in - NNW 19.6 mph 26.5 mph 0.02 in   Unknown
3:56 PM 19.9 °F 10.1 °F 17.1 °F 89% 29.85 in - NW 8.1 mph 20.7 mph 0.02 in   Unknown
4:56 PM 21.9 °F 6.9 °F 19.9 °F 92% 29.88 in - NNW 19.6 mph 26.5 mph N/A   Unknown
5:56 PM 21.9 °F 10.4 °F 21.0 °F 96% 29.94 in - NW 11.5 mph 19.6 mph 0.02 in   Unknown
6:56 PM 25.0 °F 11.3 °F 23.0 °F 92% 29.98 in - NNW 18.4 mph - 0.01 in   Unknown
7:56 PM 27.0 °F 12.8 °F 23.0 °F 85% 30.02 in - North 21.9 mph 35.7 mph N/A   Unknown
8:56 PM 25.0 °F 11.3 °F 21.9 °F 88% 30.07 in - NNW 18.4 mph 28.8 mph 0.01 in   Unknown
9:56 PM 25.0 °F 13.1 °F 21.0 °F 85% 30.10 in - North 13.8 mph 29.9 mph N/A   Unknown
10:56 PM 25.0 °F 14.2 °F 19.9 °F 81% 30.14 in - North 11.5 mph 21.9 mph N/A   Unknown
11:56 PM 24.1 °F 14.4 °F 19.9 °F 84% 30.17 in - NNW 9.2 mph - N/A   Unknown